Time,TemperatureF,DewpointF,PressureIn,WindDirection,WindDirectionDegrees,WindSpeedMPH,WindSpeedGustMPH,Humidity,HourlyPrecipIn,Conditions,Clouds,dailyrainin,SoftwareType,DateUTC
2013-08-17 00:02:00,73.4,65.1,29.85,East,95,3.1,3.6,75,0.00,,---,0.00,VWS V14.00,2013-08-17 05:02:00,
2013-08-17 00:07:00,73.4,65.1,29.85,East,80,2.7,2.7,75,0.00,,---,0.00,VWS V14.00,2013-08-17 05:07:00,
2013-08-17 00:12:00,73.4,65.1,29.85,East,90,3.1,4.0,75,0.00,,---,0.00,VWS V14.00,2013-08-17 05:12:00,
2013-08-17 00:17:00,73.2,65.5,29.85,East,91,3.1,3.1,77,0.00,,---,0.00,VWS V14.00,2013-08-17 05:17:00,
2013-08-17 00:22:00,73.2,65.5,29.85,East,97,0.0,2.7,77,0.00,,---,0.00,VWS V14.00,2013-08-17 05:22:00,
2013-08-17 00:27:00,73.2,65.5,29.85,East,94,0.0,0.0,77,0.00,,---,0.00,VWS V14.00,2013-08-17 05:27:00,
2013-08-17 00:32:00,73.2,65.5,29.85,East,99,0.0,0.0,77,0.00,,---,0.00,VWS V14.00,2013-08-17 05:32:00,
2013-08-17 00:37:00,73.0,65.3,29.85,East,93,0.0,0.0,77,0.00,,---,0.00,VWS V14.00,2013-08-17 05:37:00,
2013-08-17 00:42:00,73.0,65.3,29.85,East,93,0.0,0.0,77,0.00,,---,0.00,VWS V14.00,2013-08-17 05:42:00,
2013-08-17 00:47:00,73.0,65.3,29.85,East,96,0.0,0.0,77,0.00,,---,0.00,VWS V14.00,2013-08-17 05:47:00,
2013-08-17 00:52:00,72.9,65.1,29.85,East,96,0.0,0.0,77,0.00,,---,0.00,VWS V14.00,2013-08-17 05:52:00,
2013-08-17 00:57:00,72.9,65.1,29.85,East,96,0.0,0.0,77,0.00,,---,0.00,VWS V14.00,2013-08-17 05:57:00,
2013-08-17 01:02:00,72.9,65.1,29.85,East,96,0.0,0.0,77,0.00,,---,0.00,VWS V14.00,2013-08-17 06:02:00,
2013-08-17 01:07:00,72.7,64.9,29.85,East,96,0.0,0.0,77,0.00,,---,0.00,VWS V14.00,2013-08-17 06:07:00,
2013-08-17 01:12:00,72.7,64.9,29.85,East,96,0.0,0.0,77,0.00,,---,0.00,VWS V14.00,2013-08-17 06:12:00,
2013-08-17 01:17:00,72.5,64.8,29.85,East,96,0.0,0.0,77,0.00,,---,0.00,VWS V14.00,2013-08-17 06:17:00,
2013-08-17 01:22:00,72.5,64.8,29.85,East,96,0.0,0.0,77,0.00,,---,0.00,VWS V14.00,2013-08-17 06:22:00,
2013-08-17 01:27:00,72.5,64.8,29.85,East,96,0.0,0.0,77,0.00,,---,0.00,VWS V14.00,2013-08-17 06:27:00,
2013-08-17 01:32:00,72.5,64.8,29.85,East,96,0.0,0.0,77,0.00,,---,0.00,VWS V14.00,2013-08-17 06:32:00,
2013-08-17 01:37:00,72.3,64.6,29.85,East,96,0.0,0.0,77,0.00,,---,0.00,VWS V14.00,2013-08-17 06:37:00,
2013-08-17 01:42:00,72.3,64.6,29.85,East,96,0.0,0.0,77,0.00,,---,0.00,VWS V14.00,2013-08-17 06:42:00,
2013-08-17 01:47:00,72.3,64.6,29.85,East,96,0.0,0.0,77,0.00,,---,0.00,VWS V14.00,2013-08-17 06:47:00,
2013-08-17 01:53:00,72.1,64.4,29.85,East,96,0.0,0.0,77,0.00,,---,0.00,VWS V14.00,2013-08-17 06:53:00,
2013-08-17 01:58:00,72.1,64.4,29.85,East,96,0.0,0.0,77,0.00,,---,0.00,VWS V14.00,2013-08-17 06:58:00,
2013-08-17 02:03:00,72.1,64.4,29.85,East,96,0.0,0.0,77,0.00,,---,0.00,VWS V14.00,2013-08-17 07:03:00,
2013-08-17 02:08:00,72.1,64.4,29.85,East,96,0.0,0.0,77,0.00,,---,0.00,VWS V14.00,2013-08-17 07:08:00,
2013-08-17 02:13:00,72.1,64.4,29.85,East,96,0.0,0.0,77,0.00,,---,0.00,VWS V14.00,2013-08-17 07:13:00,
2013-08-17 02:18:00,72.0,64.2,29.85,East,96,0.0,0.0,77,0.00,,---,0.00,VWS V14.00,2013-08-17 07:18:00,
2013-08-17 02:23:00,72.0,64.2,29.85,East,96,0.0,0.0,77,0.00,,---,0.00,VWS V14.00,2013-08-17 07:23:00,
2013-08-17 02:28:00,72.0,64.7,29.85,East,96,0.0,0.0,78,0.00,,---,0.00,VWS V14.00,2013-08-17 07:28:00,
2013-08-17 02:33:00,72.0,64.7,29.85,East,96,0.0,0.0,78,0.00,,---,0.00,VWS V14.00,2013-08-17 07:33:00,
2013-08-17 02:38:00,71.8,64.6,29.85,East,96,0.0,0.0,78,0.00,,---,0.00,VWS V14.00,2013-08-17 07:38:00,
2013-08-17 02:43:00,71.8,64.6,29.85,East,96,0.0,0.0,78,0.00,,---,0.00,VWS V14.00,2013-08-17 07:43:00,
2013-08-17 02:48:00,71.6,64.4,29.85,East,96,0.0,0.0,78,0.00,,---,0.00,VWS V14.00,2013-08-17 07:48:00,
2013-08-17 02:53:00,71.6,64.4,29.85,East,96,0.0,0.0,78,0.00,,---,0.00,VWS V14.00,2013-08-17 07:53:00,
2013-08-17 02:58:00,71.4,64.2,29.85,East,96,0.0,0.0,78,0.00,,---,0.00,VWS V14.00,2013-08-17 07:58:00,
2013-08-17 03:03:00,71.4,64.7,29.85,East,96,0.0,0.0,79,0.00,,---,0.00,VWS V14.00,2013-08-17 08:03:00,
2013-08-17 03:08:00,71.1,64.3,29.85,East,96,0.0,0.0,79,0.00,,---,0.00,VWS V14.00,2013-08-17 08:08:00,
2013-08-17 03:13:00,71.1,64.8,29.85,East,96,0.0,0.0,81,0.00,,---,0.00,VWS V14.00,2013-08-17 08:13:00,
2013-08-17 03:18:00,71.1,64.8,29.85,East,96,0.0,0.0,81,0.00,,---,0.00,VWS V14.00,2013-08-17 08:18:00,
2013-08-17 03:23:00,71.1,64.8,29.85,East,96,0.0,0.0,81,0.00,,---,0.00,VWS V14.00,2013-08-17 08:23:00,
2013-08-17 03:28:00,71.1,64.8,29.85,East,96,0.0,0.0,81,0.00,,---,0.00,VWS V14.00,2013-08-17 08:28:00,
2013-08-17 03:33:00,71.1,64.8,29.85,East,96,0.0,0.0,81,0.00,,---,0.00,VWS V14.00,2013-08-17 08:33:00,
2013-08-17 03:38:00,71.1,64.8,29.85,East,96,0.0,0.0,81,0.00,,---,0.00,VWS V14.00,2013-08-17 08:38:00,
2013-08-17 03:43:00,70.9,64.7,29.85,East,96,0.0,0.0,81,0.00,,---,0.00,VWS V14.00,2013-08-17 08:43:00,
2013-08-17 03:48:00,70.9,64.7,29.85,East,96,0.0,0.0,81,0.00,,---,0.00,VWS V14.00,2013-08-17 08:48:00,
2013-08-17 03:53:00,70.9,64.7,29.83,East,96,0.0,0.0,81,0.00,,---,0.00,VWS V14.00,2013-08-17 08:53:00,
2013-08-17 03:58:00,70.7,64.5,29.83,East,96,0.0,0.0,81,0.00,,---,0.00,VWS V14.00,2013-08-17 08:58:00,
2013-08-17 04:03:00,70.5,64.3,29.83,East,96,0.0,0.0,81,0.00,,---,0.00,VWS V14.00,2013-08-17 09:03:00,
2013-08-17 04:08:00,70.5,64.3,29.85,East,96,0.0,0.0,81,0.00,,---,0.00,VWS V14.00,2013-08-17 09:08:00,
2013-08-17 04:13:00,70.5,64.3,29.85,East,96,0.0,0.0,81,0.00,,---,0.00,VWS V14.00,2013-08-17 09:13:00,
2013-08-17 04:18:00,70.3,64.6,29.85,East,96,0.0,0.0,82,0.00,,---,0.00,VWS V14.00,2013-08-17 09:18:00,
2013-08-17 04:23:00,70.2,64.4,29.85,East,96,0.0,0.0,82,0.00,,---,0.00,VWS V14.00,2013-08-17 09:23:00,
2013-08-17 04:28:00,70.2,64.4,29.85,East,96,0.0,0.0,82,0.00,,---,0.00,VWS V14.00,2013-08-17 09:28:00,
2013-08-17 04:33:00,70.2,64.4,29.85,East,96,0.0,0.0,82,0.00,,---,0.00,VWS V14.00,2013-08-17 09:33:00,
2013-08-17 04:38:00,70.0,64.7,29.85,East,96,0.0,0.0,83,0.00,,---,0.00,VWS V14.00,2013-08-17 09:38:00,
2013-08-17 04:43:00,69.8,65.0,29.85,East,96,0.0,0.0,85,0.00,,---,0.00,VWS V14.00,2013-08-17 09:43:00,
2013-08-17 04:48:00,69.6,65.2,29.85,East,96,0.0,0.0,86,0.00,,---,0.00,VWS V14.00,2013-08-17 09:48:00,
2013-08-17 04:53:00,69.6,65.2,29.83,East,96,0.0,0.0,86,0.00,,---,0.00,VWS V14.00,2013-08-17 09:53:00,
2013-08-17 04:58:00,69.6,65.7,29.83,East,96,0.0,0.0,87,0.00,,---,0.00,VWS V14.00,2013-08-17 09:58:00,
2013-08-17 05:03:00,69.4,65.5,29.83,East,96,0.0,0.0,87,0.00,,---,0.00,VWS V14.00,2013-08-17 10:03:00,
2013-08-17 05:08:00,69.4,65.5,29.85,East,96,0.0,0.0,87,0.00,,---,0.00,VWS V14.00,2013-08-17 10:08:00,
2013-08-17 05:13:00,69.3,65.3,29.85,East,96,0.0,0.0,87,0.00,,---,0.00,VWS V14.00,2013-08-17 10:13:00,
2013-08-17 05:18:00,69.3,65.3,29.85,East,96,0.0,0.0,87,0.00,,---,0.00,VWS V14.00,2013-08-17 10:18:00,
2013-08-17 05:23:00,69.3,65.3,29.85,East,96,0.0,0.0,87,0.00,,---,0.00,VWS V14.00,2013-08-17 10:23:00,
2013-08-17 05:28:00,69.3,65.3,29.85,East,96,0.0,0.0,87,0.00,,---,0.00,VWS V14.00,2013-08-17 10:28:00,
2013-08-17 05:34:00,69.3,65.8,29.85,East,96,0.0,0.0,89,0.00,,---,0.00,VWS V14.00,2013-08-17 10:34:00,
2013-08-17 05:39:00,69.1,65.6,29.85,East,96,0.0,0.0,89,0.00,,---,0.00,VWS V14.00,2013-08-17 10:39:00,
2013-08-17 05:44:00,69.1,65.6,29.85,East,96,0.0,0.0,89,0.00,,---,0.00,VWS V14.00,2013-08-17 10:44:00,
2013-08-17 05:49:00,68.9,65.4,29.85,East,96,0.0,0.0,89,0.00,,---,0.00,VWS V14.00,2013-08-17 10:49:00,
2013-08-17 05:54:00,68.9,65.4,29.85,East,96,0.0,0.0,89,0.00,,---,0.00,VWS V14.00,2013-08-17 10:54:00,
2013-08-17 05:59:00,68.9,65.4,29.85,East,96,0.0,0.0,89,0.00,,---,0.00,VWS V14.00,2013-08-17 10:59:00,
2013-08-17 06:04:00,68.9,65.8,29.85,East,96,0.0,0.0,90,0.00,,---,0.00,VWS V14.00,2013-08-17 11:04:00,
2013-08-17 06:09:00,68.9,65.8,29.85,East,96,0.0,0.0,90,0.00,,---,0.00,VWS V14.00,2013-08-17 11:09:00,
2013-08-17 06:14:00,68.9,65.8,29.85,East,96,0.0,0.0,90,0.00,,---,0.00,VWS V14.00,2013-08-17 11:14:00,
2013-08-17 06:19:00,68.7,65.7,29.85,East,96,0.0,0.0,90,0.00,,---,0.00,VWS V14.00,2013-08-17 11:19:00,
2013-08-17 06:24:00,68.7,65.7,29.85,East,96,0.0,0.0,90,0.00,,---,0.00,VWS V14.00,2013-08-17 11:24:00,
2013-08-17 06:29:00,68.7,65.7,29.85,East,96,0.0,0.0,90,0.00,,---,0.00,VWS V14.00,2013-08-17 11:29:00,
2013-08-17 06:34:00,68.7,66.1,29.85,East,96,0.0,0.0,91,0.00,,---,0.00,VWS V14.00,2013-08-17 11:34:00,
2013-08-17 06:39:00,68.7,66.1,29.85,East,96,0.0,0.0,91,0.00,,---,0.00,VWS V14.00,2013-08-17 11:39:00,
2013-08-17 06:44:00,68.7,66.1,29.85,East,96,0.0,0.0,91,0.00,,---,0.00,VWS V14.00,2013-08-17 11:44:00,
2013-08-17 06:49:00,68.7,66.1,29.85,East,96,0.0,0.0,91,0.00,,---,0.00,VWS V14.00,2013-08-17 11:49:00,
2013-08-17 06:54:00,68.7,66.9,29.85,East,96,0.0,0.0,94,0.00,,---,0.00,VWS V14.00,2013-08-17 11:54:00,
2013-08-17 06:59:00,68.7,66.9,29.85,East,96,0.0,0.0,94,0.00,,---,0.00,VWS V14.00,2013-08-17 11:59:00,
2013-08-17 07:04:00,68.9,67.1,29.85,East,96,0.0,0.0,94,0.00,,---,0.00,VWS V14.00,2013-08-17 12:04:00,
2013-08-17 07:08:00,68.9,67.1,29.85,East,96,0.0,0.0,94,0.00,,---,0.00,VWS V14.00,2013-08-17 12:08:00,
2013-08-17 07:13:00,68.9,67.1,29.85,East,96,0.0,0.0,94,0.00,,---,0.00,VWS V14.00,2013-08-17 12:13:00,
2013-08-17 07:18:00,69.1,67.3,29.85,East,96,0.0,0.0,94,0.00,,---,0.00,VWS V14.00,2013-08-17 12:18:00,
2013-08-17 07:23:00,69.3,67.5,29.85,East,96,0.0,0.0,94,0.00,,---,0.00,VWS V14.00,2013-08-17 12:23:00,
2013-08-17 07:28:00,69.4,67.2,29.85,East,96,0.0,0.0,93,0.00,,---,0.00,VWS V14.00,2013-08-17 12:28:00,
2013-08-17 07:33:00,69.4,65.9,29.85,East,96,0.0,0.0,89,0.00,,---,0.00,VWS V14.00,2013-08-17 12:33:00,
2013-08-17 07:38:00,69.4,65.9,29.88,East,96,0.0,0.0,89,0.00,,---,0.00,VWS V14.00,2013-08-17 12:38:00,
2013-08-17 07:43:00,69.8,66.3,29.88,SE,126,0.0,0.0,89,0.00,,---,0.00,VWS V14.00,2013-08-17 12:43:00,
2013-08-17 07:48:00,70.0,66.1,29.88,SE,126,0.0,0.0,87,0.00,,---,0.00,VWS V14.00,2013-08-17 12:48:00,
2013-08-17 07:53:00,70.0,65.6,29.85,ESE,102,0.0,0.0,86,0.00,,---,0.00,VWS V14.00,2013-08-17 12:53:00,
2013-08-17 07:58:00,70.2,65.8,29.85,East,101,0.0,0.0,86,0.00,,---,0.00,VWS V14.00,2013-08-17 12:58:00,
2013-08-17 08:03:00,70.3,65.5,29.85,East,101,0.0,0.0,85,0.00,,---,0.00,VWS V14.00,2013-08-17 13:03:00,
2013-08-17 08:08:00,70.7,65.4,29.88,East,101,0.0,0.0,83,0.00,,---,0.00,VWS V14.00,2013-08-17 13:08:00,
2013-08-17 08:13:00,70.9,65.1,29.88,ESE,102,0.0,0.0,82,0.00,,---,0.00,VWS V14.00,2013-08-17 13:13:00,
2013-08-17 08:18:00,70.9,64.2,29.88,ESE,102,0.0,0.0,79,0.00,,---,0.00,VWS V14.00,2013-08-17 13:18:00,
2013-08-17 08:23:00,71.2,64.5,29.85,ESE,102,0.0,0.0,79,0.00,,---,0.00,VWS V14.00,2013-08-17 13:23:00,
2013-08-17 08:28:00,71.4,64.7,29.85,ESE,102,0.0,0.0,79,0.00,,---,0.00,VWS V14.00,2013-08-17 13:28:00,
2013-08-17 08:33:00,71.6,63.9,29.85,ESE,102,0.0,0.0,77,0.00,,---,0.00,VWS V14.00,2013-08-17 13:33:00,
2013-08-17 08:39:00,72.0,64.2,29.88,ESE,102,0.0,0.0,77,0.00,,---,0.00,VWS V14.00,2013-08-17 13:39:00,
2013-08-17 08:44:00,72.1,63.9,29.88,ESE,102,0.0,0.0,75,0.00,,---,0.00,VWS V14.00,2013-08-17 13:44:00,
2013-08-17 08:49:00,72.3,64.1,29.88,ESE,102,0.0,0.0,75,0.00,,---,0.00,VWS V14.00,2013-08-17 13:49:00,
2013-08-17 08:54:00,72.9,64.6,29.88,ENE,64,0.0,2.7,75,0.00,,---,0.00,VWS V14.00,2013-08-17 13:54:00,
2013-08-17 08:59:00,73.0,64.3,29.88,ENE,64,0.0,0.0,74,0.00,,---,0.00,VWS V14.00,2013-08-17 13:59:00,
2013-08-17 09:04:00,73.2,64.4,29.88,East,84,2.7,2.7,74,0.00,,---,0.00,VWS V14.00,2013-08-17 14:04:00,
2013-08-17 09:09:00,73.4,64.1,29.88,East,100,0.0,0.0,73,0.00,,---,0.00,VWS V14.00,2013-08-17 14:09:00,
2013-08-17 09:14:00,73.4,64.1,29.88,East,93,0.0,0.0,73,0.00,,---,0.00,VWS V14.00,2013-08-17 14:14:00,
2013-08-17 09:19:00,73.6,64.3,29.88,East,94,0.0,0.0,73,0.00,,---,0.00,VWS V14.00,2013-08-17 14:19:00,
2013-08-17 09:24:00,73.6,64.3,29.88,East,92,2.7,2.7,73,0.00,,---,0.00,VWS V14.00,2013-08-17 14:24:00,
2013-08-17 09:29:00,73.6,64.3,29.88,East,84,0.0,0.0,73,0.00,,---,0.00,VWS V14.00,2013-08-17 14:29:00,
2013-08-17 09:34:00,73.6,64.3,29.88,SE,132,0.0,0.0,73,0.00,,---,0.00,VWS V14.00,2013-08-17 14:34:00,
2013-08-17 09:39:00,73.8,64.4,29.88,SE,127,0.0,0.0,73,0.00,,---,0.00,VWS V14.00,2013-08-17 14:39:00,
2013-08-17 09:44:00,74.1,64.8,29.88,East,89,0.0,0.0,73,0.00,,---,0.00,VWS V14.00,2013-08-17 14:44:00,
2013-08-17 09:49:00,74.1,64.8,29.88,East,89,0.0,0.0,73,0.00,,---,0.00,VWS V14.00,2013-08-17 14:49:00,
2013-08-17 09:54:00,74.3,65.0,29.88,East,96,0.0,0.0,73,0.00,,---,0.00,VWS V14.00,2013-08-17 14:54:00,
2013-08-17 09:59:00,74.3,65.0,29.88,East,98,0.0,0.0,73,0.00,,---,0.00,VWS V14.00,2013-08-17 14:59:00,
2013-08-17 10:04:00,74.7,65.3,29.88,East,96,0.0,0.0,73,0.00,,---,0.00,VWS V14.00,2013-08-17 15:04:00,
2013-08-17 10:09:00,75.0,65.7,29.88,East,81,0.0,2.2,73,0.00,,---,0.00,VWS V14.00,2013-08-17 15:09:00,
2013-08-17 10:14:00,75.2,65.3,29.88,ENE,67,0.0,3.1,71,0.00,,---,0.00,VWS V14.00,2013-08-17 15:14:00,
2013-08-17 10:19:00,75.2,65.3,29.88,ENE,74,0.0,3.1,71,0.00,,---,0.00,VWS V14.00,2013-08-17 15:19:00,
2013-08-17 10:24:00,75.6,65.6,29.88,East,86,0.0,2.7,71,0.00,,---,0.00,VWS V14.00,2013-08-17 15:24:00,
2013-08-17 10:29:00,75.7,65.8,29.88,East,100,2.2,3.1,71,0.00,,---,0.00,VWS V14.00,2013-08-17 15:29:00,
2013-08-17 10:34:00,75.7,65.8,29.88,ESE,103,2.7,2.7,71,0.00,,---,0.00,VWS V14.00,2013-08-17 15:34:00,
2013-08-17 10:39:00,76.3,66.3,29.88,East,101,3.1,3.1,71,0.00,,---,0.00,VWS V14.00,2013-08-17 15:39:00,
2013-08-17 10:44:00,76.6,66.7,29.88,East,85,0.0,3.1,71,0.00,,---,0.00,VWS V14.00,2013-08-17 15:44:00,
2013-08-17 10:49:00,77.0,67.0,29.88,SE,127,0.0,3.6,71,0.00,,---,0.00,VWS V14.00,2013-08-17 15:49:00,
2013-08-17 10:54:00,77.4,67.4,29.88,ENE,75,2.7,3.1,71,0.00,,---,0.00,VWS V14.00,2013-08-17 15:54:00,
2013-08-17 10:59:00,77.4,67.4,29.88,ENE,72,0.0,3.1,71,0.00,,---,0.00,VWS V14.00,2013-08-17 15:59:00,
2013-08-17 11:05:00,77.0,67.0,29.88,ENE,68,2.7,4.0,71,0.00,,---,0.00,VWS V14.00,2013-08-17 16:05:00,
2013-08-17 11:10:00,76.5,66.5,29.88,East,96,0.0,0.0,71,0.00,,---,0.00,VWS V14.00,2013-08-17 16:10:00,
2013-08-17 11:15:00,76.1,66.2,29.88,ENE,59,3.6,3.6,71,0.00,,---,0.00,VWS V14.00,2013-08-17 16:15:00,
2013-08-17 11:20:00,76.1,66.2,29.88,East,88,0.0,3.6,71,0.00,,---,0.00,VWS V14.00,2013-08-17 16:20:00,
2013-08-17 11:25:00,76.5,66.5,29.88,East,95,0.0,2.7,71,0.00,,---,0.00,VWS V14.00,2013-08-17 16:25:00,
2013-08-17 11:30:00,76.6,66.7,29.88,East,95,0.0,2.7,71,0.00,,---,0.00,VWS V14.00,2013-08-17 16:30:00,
2013-08-17 11:35:00,77.0,67.0,29.88,East,97,2.7,2.7,71,0.00,,---,0.00,VWS V14.00,2013-08-17 16:35:00,
2013-08-17 11:40:00,77.2,67.2,29.88,East,95,0.0,3.1,71,0.00,,---,0.00,VWS V14.00,2013-08-17 16:40:00,
2013-08-17 11:45:00,77.2,67.2,29.88,East,89,0.0,0.0,71,0.00,,---,0.00,VWS V14.00,2013-08-17 16:45:00,
2013-08-17 11:50:00,77.5,67.5,29.88,North,349,2.2,2.2,71,0.00,,---,0.00,VWS V14.00,2013-08-17 16:50:00,
2013-08-17 11:55:00,77.9,67.9,29.88,NE,50,0.0,0.0,71,0.00,,---,0.00,VWS V14.00,2013-08-17 16:55:00,
2013-08-17 12:00:00,78.4,68.4,29.88,ESE,110,0.0,4.0,71,0.00,,---,0.00,VWS V14.00,2013-08-17 17:00:00,
2013-08-17 12:05:00,78.6,68.6,29.88,East,101,0.0,4.9,71,0.00,,---,0.00,VWS V14.00,2013-08-17 17:05:00,
2013-08-17 12:10:00,78.6,68.6,29.88,ESE,104,2.2,3.1,71,0.00,,---,0.00,VWS V14.00,2013-08-17 17:10:00,
2013-08-17 12:15:00,78.6,68.6,29.88,ESE,102,0.0,2.7,71,0.00,,---,0.00,VWS V14.00,2013-08-17 17:15:00,
2013-08-17 12:20:00,78.4,68.4,29.88,East,89,0.0,0.0,71,0.00,,---,0.00,VWS V14.00,2013-08-17 17:20:00,
2013-08-17 12:25:00,77.9,67.9,29.85,East,89,0.0,0.0,71,0.00,,---,0.00,VWS V14.00,2013-08-17 17:25:00,
2013-08-17 12:30:00,77.5,67.5,29.85,East,89,0.0,0.0,71,0.00,,---,0.00,VWS V14.00,2013-08-17 17:30:00,
2013-08-17 12:35:00,76.8,67.4,29.85,NNW,328,2.2,2.2,73,0.00,,---,0.00,VWS V14.00,2013-08-17 17:35:00,
2013-08-17 12:40:00,74.3,66.0,29.85,NNW,329,0.0,0.0,75,0.00,,---,0.00,VWS V14.00,2013-08-17 17:40:00,
2013-08-17 12:45:00,73.2,66.9,29.85,NNW,334,0.0,0.0,81,0.00,,---,0.00,VWS V14.00,2013-08-17 17:45:00,
2013-08-17 12:50:00,72.9,67.1,29.85,NNW,334,0.0,0.0,82,0.00,,---,0.00,VWS V14.00,2013-08-17 17:50:00,
2013-08-17 12:55:00,73.2,68.3,29.85,NNW,334,0.0,0.0,85,0.00,,---,0.00,VWS V14.00,2013-08-17 17:55:00,
2013-08-17 13:00:00,73.2,68.3,29.85,NNW,334,0.0,0.0,85,0.00,,---,0.00,VWS V14.00,2013-08-17 18:00:00,
2013-08-17 13:05:00,73.4,68.0,29.85,NNW,334,0.0,0.0,83,0.00,,---,0.00,VWS V14.00,2013-08-17 18:05:00,
2013-08-17 13:10:00,73.9,69.9,29.85,NNW,334,0.0,0.0,87,0.00,,---,0.00,VWS V14.00,2013-08-17 18:10:00,
2013-08-17 13:15:00,73.9,67.1,29.85,NNW,334,0.0,0.0,79,0.00,,---,0.00,VWS V14.00,2013-08-17 18:15:00,
2013-08-17 13:20:00,74.8,69.0,29.85,NNW,334,0.0,0.0,82,0.00,,---,0.00,VWS V14.00,2013-08-17 18:20:00,
2013-08-17 13:25:00,75.0,67.2,29.85,East,89,0.0,0.0,77,0.00,,---,0.00,VWS V14.00,2013-08-17 18:25:00,
2013-08-17 13:30:00,74.8,66.0,29.85,NE,39,0.0,0.0,74,0.00,,---,0.00,VWS V14.00,2013-08-17 18:30:00,
2013-08-17 13:35:00,74.7,66.3,29.85,North,2,0.0,0.0,75,0.00,,---,0.00,VWS V14.00,2013-08-17 18:35:00,
2013-08-17 13:40:00,75.2,67.4,29.85,North,353,0.0,0.0,77,0.00,,---,0.00,VWS V14.00,2013-08-17 18:40:00,
2013-08-17 13:45:00,75.7,68.9,29.85,North,0,0.0,0.0,79,0.00,,---,0.00,VWS V14.00,2013-08-17 18:45:00,
2013-08-17 13:50:00,76.5,68.6,29.85,North,6,0.0,0.0,77,0.00,,---,0.00,VWS V14.00,2013-08-17 18:50:00,
2013-08-17 13:55:00,76.3,66.9,29.85,North,3,0.0,0.0,73,0.00,,---,0.00,VWS V14.00,2013-08-17 18:55:00,
2013-08-17 14:00:00,74.5,66.7,29.85,NW,304,0.0,0.0,77,0.00,,---,0.00,VWS V14.00,2013-08-17 19:00:00,
2013-08-17 14:05:00,72.9,68.0,29.85,NW,304,0.0,0.0,85,0.00,,---,0.00,VWS V14.00,2013-08-17 19:05:00,
2013-08-17 14:10:00,72.3,72.3,29.85,WNW,303,0.0,0.0,100,0.08,,---,0.08,VWS V14.00,2013-08-17 19:10:00,
2013-08-17 14:15:00,72.3,72.3,29.85,WNW,302,0.0,0.0,100,0.08,,---,0.08,VWS V14.00,2013-08-17 19:15:00,
2013-08-17 14:21:00,71.8,71.8,29.85,NW,324,2.7,2.7,100,0.08,,---,0.08,VWS V14.00,2013-08-17 19:21:00,
2013-08-17 14:26:00,71.4,71.4,29.85,NW,324,0.0,0.0,100,0.08,,---,0.08,VWS V14.00,2013-08-17 19:26:00,
2013-08-17 14:31:00,71.4,71.4,29.85,NW,324,0.0,0.0,100,0.12,,---,0.12,VWS V14.00,2013-08-17 19:31:00,
2013-08-17 14:36:00,71.8,71.8,29.85,NW,324,0.0,0.0,100,0.12,,---,0.12,VWS V14.00,2013-08-17 19:36:00,
2013-08-17 14:41:00,72.1,72.2,29.85,NW,324,0.0,0.0,100,0.12,,---,0.12,VWS V14.00,2013-08-17 19:41:00,
2013-08-17 14:46:00,72.0,72.0,29.85,NW,324,0.0,0.0,100,0.12,,---,0.12,VWS V14.00,2013-08-17 19:46:00,
2013-08-17 14:51:00,72.9,72.9,29.85,West,275,0.0,0.0,100,0.12,,---,0.12,VWS V14.00,2013-08-17 19:51:00,
2013-08-17 14:56:00,73.0,73.1,29.85,NNW,330,0.0,0.0,100,0.12,,---,0.12,VWS V14.00,2013-08-17 19:56:00,
2013-08-17 15:01:00,72.9,72.9,29.85,NNW,330,0.0,0.0,100,0.12,,---,0.12,VWS V14.00,2013-08-17 20:01:00,
2013-08-17 15:06:00,73.0,73.1,29.85,NNW,330,0.0,0.0,100,0.12,,---,0.12,VWS V14.00,2013-08-17 20:06:00,
2013-08-17 15:11:00,73.8,73.8,29.85,NNW,330,0.0,0.0,100,0.08,,---,0.12,VWS V14.00,2013-08-17 20:11:00,
2013-08-17 15:16:00,74.8,74.8,29.85,NW,313,0.0,0.0,100,0.04,,---,0.12,VWS V14.00,2013-08-17 20:16:00,
2013-08-17 15:21:00,74.8,74.8,29.85,NW,320,0.0,0.0,100,0.04,,---,0.12,VWS V14.00,2013-08-17 20:21:00,
2013-08-17 15:26:00,74.8,73.8,29.83,NW,319,0.0,0.0,97,0.04,,---,0.12,VWS V14.00,2013-08-17 20:26:00,
2013-08-17 15:31:00,75.6,69.7,29.83,NNE,14,0.0,0.0,82,0.00,,---,0.12,VWS V14.00,2013-08-17 20:31:00,
2013-08-17 15:36:00,76.8,71.9,29.83,North,0,0.0,2.2,85,0.00,,---,0.12,VWS V14.00,2013-08-17 20:36:00,
2013-08-17 15:41:00,77.4,71.4,29.83,East,96,0.0,0.0,82,0.00,,---,0.12,VWS V14.00,2013-08-17 20:41:00,
2013-08-17 15:46:00,77.4,67.4,29.83,NNW,328,0.0,0.0,71,0.00,,---,0.12,VWS V14.00,2013-08-17 20:46:00,
2013-08-17 15:51:00,77.9,68.4,29.83,NNW,329,0.0,0.0,73,0.00,,---,0.12,VWS V14.00,2013-08-17 20:51:00,
2013-08-17 15:56:00,79.5,69.4,29.83,NNW,329,0.0,0.0,71,0.00,,---,0.12,VWS V14.00,2013-08-17 20:56:00,
2013-08-17 16:01:00,80.4,70.3,29.83,North,6,0.0,3.1,71,0.00,,---,0.12,VWS V14.00,2013-08-17 21:01:00,
2013-08-17 16:06:00,80.6,69.9,29.83,North,6,0.0,0.0,70,0.00,,---,0.12,VWS V14.00,2013-08-17 21:06:00,
2013-08-17 16:11:00,80.2,69.6,29.83,NW,314,2.7,3.6,70,0.00,,---,0.12,VWS V14.00,2013-08-17 21:11:00,
2013-08-17 16:16:00,81.3,70.6,29.83,NE,52,0.0,2.2,70,0.00,,---,0.12,VWS V14.00,2013-08-17 21:16:00,
2013-08-17 16:21:00,82.0,71.3,29.83,NE,52,0.0,0.0,70,0.00,,---,0.12,VWS V14.00,2013-08-17 21:21:00,
2013-08-17 16:26:00,82.6,71.2,29.83,NE,51,0.0,0.0,69,0.00,,---,0.12,VWS V14.00,2013-08-17 21:26:00,
2013-08-17 16:31:00,82.9,71.6,29.83,North,1,3.1,3.1,69,0.00,,---,0.12,VWS V14.00,2013-08-17 21:31:00,
2013-08-17 16:36:00,82.2,71.5,29.83,North,8,0.0,0.0,70,0.00,,---,0.12,VWS V14.00,2013-08-17 21:36:00,
2013-08-17 16:41:00,81.1,70.4,29.83,North,8,0.0,0.0,70,0.00,,---,0.12,VWS V14.00,2013-08-17 21:41:00,
2013-08-17 16:47:00,80.4,69.8,29.83,North,8,0.0,0.0,70,0.00,,---,0.12,VWS V14.00,2013-08-17 21:47:00,
2013-08-17 16:52:00,80.4,69.8,29.83,North,8,0.0,0.0,70,0.00,,---,0.12,VWS V14.00,2013-08-17 21:52:00,
2013-08-17 16:57:00,80.2,69.6,29.83,North,8,0.0,0.0,70,0.00,,---,0.12,VWS V14.00,2013-08-17 21:57:00,
2013-08-17 17:02:00,80.6,69.9,29.83,North,9,0.0,0.0,70,0.00,,---,0.12,VWS V14.00,2013-08-17 22:02:00,
2013-08-17 17:07:00,81.0,70.3,29.83,NE,48,0.0,0.0,70,0.00,,---,0.12,VWS V14.00,2013-08-17 22:07:00,
2013-08-17 17:12:00,81.1,70.4,29.83,NE,48,0.0,0.0,70,0.00,,---,0.12,VWS V14.00,2013-08-17 22:12:00,
2013-08-17 17:17:00,80.8,70.1,29.83,ESE,110,3.6,3.6,70,0.00,,---,0.12,VWS V14.00,2013-08-17 22:17:00,
2013-08-17 17:22:00,80.2,69.6,29.83,East,88,2.7,3.1,70,0.00,,---,0.12,VWS V14.00,2013-08-17 22:22:00,
2013-08-17 17:27:00,79.2,68.5,29.83,East,95,3.1,4.0,70,0.00,,---,0.12,VWS V14.00,2013-08-17 22:27:00,
2013-08-17 17:32:00,78.3,68.2,29.83,East,101,2.2,3.6,71,0.00,,---,0.12,VWS V14.00,2013-08-17 22:32:00,
2013-08-17 17:37:00,77.4,67.4,29.83,East,101,0.0,0.0,71,0.00,,---,0.12,VWS V14.00,2013-08-17 22:37:00,
2013-08-17 17:42:00,76.3,66.9,29.83,East,101,0.0,0.0,73,0.00,,---,0.12,VWS V14.00,2013-08-17 22:42:00,
2013-08-17 17:47:00,75.7,66.9,29.83,SSW,210,0.0,0.0,74,0.00,,---,0.12,VWS V14.00,2013-08-17 22:47:00,
2013-08-17 17:52:00,75.2,65.3,29.83,SSW,210,0.0,0.0,71,0.00,,---,0.12,VWS V14.00,2013-08-17 22:52:00,
2013-08-17 17:57:00,74.7,65.8,29.83,SSW,210,0.0,0.0,74,0.00,,---,0.12,VWS V14.00,2013-08-17 22:57:00,
2013-08-17 18:02:00,74.3,65.5,29.83,WSW,243,0.0,0.0,74,0.00,,---,0.12,VWS V14.00,2013-08-17 23:02:00,
2013-08-17 18:07:00,73.9,64.6,29.83,WSW,243,0.0,0.0,73,0.00,,---,0.12,VWS V14.00,2013-08-17 23:07:00,
2013-08-17 18:12:00,73.9,64.6,29.83,North,1,0.0,0.0,73,0.00,,---,0.12,VWS V14.00,2013-08-17 23:12:00,
2013-08-17 18:17:00,73.9,66.7,29.83,North,1,0.0,0.0,78,0.00,,---,0.12,VWS V14.00,2013-08-17 23:17:00,
2013-08-17 18:22:00,73.6,66.8,29.83,North,1,0.0,0.0,79,0.00,,---,0.12,VWS V14.00,2013-08-17 23:22:00,
2013-08-17 18:27:00,73.0,64.8,29.83,North,1,0.0,0.0,75,0.00,,---,0.12,VWS V14.00,2013-08-17 23:27:00,
2013-08-17 18:32:00,72.9,65.6,29.83,North,1,0.0,0.0,78,0.00,,---,0.12,VWS V14.00,2013-08-17 23:32:00,
2013-08-17 18:37:00,72.9,65.6,29.83,North,1,0.0,0.0,78,0.00,,---,0.12,VWS V14.00,2013-08-17 23:37:00,
2013-08-17 18:42:00,72.9,66.1,29.83,North,4,0.0,0.0,79,0.00,,---,0.12,VWS V14.00,2013-08-17 23:42:00,
2013-08-17 18:47:00,73.0,66.3,29.83,North,7,0.0,2.2,79,0.00,,---,0.12,VWS V14.00,2013-08-17 23:47:00,
2013-08-17 18:52:00,73.2,67.4,29.83,North,7,0.0,0.0,82,0.00,,---,0.12,VWS V14.00,2013-08-17 23:52:00,
2013-08-17 18:57:00,73.4,68.5,29.83,North,7,0.0,0.0,85,0.00,,---,0.12,VWS V14.00,2013-08-17 23:57:00,
2013-08-17 19:03:00,73.2,69.2,29.83,North,7,0.0,0.0,87,0.00,,---,0.12,VWS V14.00,2013-08-18 00:03:00,
2013-08-17 19:08:00,73.2,68.8,29.83,North,7,0.0,0.0,86,0.00,,---,0.12,VWS V14.00,2013-08-18 00:08:00,
2013-08-17 19:13:00,73.2,69.2,29.83,North,7,0.0,0.0,87,0.00,,---,0.12,VWS V14.00,2013-08-18 00:13:00,
2013-08-17 19:18:00,72.9,68.9,29.83,North,7,0.0,0.0,87,0.00,,---,0.12,VWS V14.00,2013-08-18 00:18:00,
2013-08-17 19:23:00,72.9,68.9,29.85,North,7,0.0,0.0,87,0.00,,---,0.12,VWS V14.00,2013-08-18 00:23:00,
2013-08-17 19:28:00,72.9,68.4,29.85,North,7,0.0,0.0,86,0.00,,---,0.12,VWS V14.00,2013-08-18 00:28:00,
2013-08-17 19:33:00,72.9,68.9,29.85,North,7,0.0,0.0,87,0.00,,---,0.12,VWS V14.00,2013-08-18 00:33:00,
2013-08-17 19:38:00,72.9,69.3,29.85,North,7,0.0,0.0,89,0.00,,---,0.12,VWS V14.00,2013-08-18 00:38:00,
2013-08-17 19:43:00,72.5,69.0,29.85,North,7,0.0,0.0,89,0.00,,---,0.12,VWS V14.00,2013-08-18 00:43:00,
2013-08-17 19:48:00,72.3,69.2,29.85,North,7,0.0,0.0,90,0.00,,---,0.12,VWS V14.00,2013-08-18 00:48:00,
2013-08-17 19:53:00,72.3,70.5,29.85,North,7,0.0,0.0,94,0.00,,---,0.12,VWS V14.00,2013-08-18 00:53:00,
2013-08-17 19:58:00,72.3,70.1,29.85,North,7,0.0,0.0,93,0.00,,---,0.12,VWS V14.00,2013-08-18 00:58:00,
2013-08-17 20:03:00,72.3,70.5,29.85,North,7,0.0,0.0,94,0.00,,---,0.12,VWS V14.00,2013-08-18 01:03:00,
2013-08-17 20:09:00,72.1,70.3,29.85,North,7,0.0,0.0,94,0.00,,---,0.12,VWS V14.00,2013-08-18 01:09:00,
2013-08-17 20:14:00,72.1,71.1,29.85,North,7,0.0,0.0,97,0.00,,---,0.12,VWS V14.00,2013-08-18 01:14:00,
2013-08-17 20:19:00,72.0,71.4,29.85,North,7,0.0,0.0,98,0.00,,---,0.12,VWS V14.00,2013-08-18 01:19:00,
2013-08-17 20:24:00,72.0,71.4,29.85,North,7,0.0,0.0,98,0.00,,---,0.12,VWS V14.00,2013-08-18 01:24:00,
2013-08-17 20:29:00,72.1,71.9,29.85,North,7,0.0,0.0,99,0.00,,---,0.12,VWS V14.00,2013-08-18 01:29:00,
2013-08-17 20:34:00,72.0,72.0,29.85,North,7,0.0,0.0,100,0.00,,---,0.12,VWS V14.00,2013-08-18 01:34:00,
2013-08-17 20:39:00,72.0,72.0,29.85,North,7,0.0,0.0,100,0.00,,---,0.12,VWS V14.00,2013-08-18 01:39:00,
2013-08-17 20:44:00,71.8,71.8,29.85,North,7,0.0,0.0,100,0.00,,---,0.12,VWS V14.00,2013-08-18 01:44:00,
2013-08-17 20:49:00,71.8,71.8,29.85,North,7,0.0,0.0,100,0.00,,---,0.12,VWS V14.00,2013-08-18 01:49:00,
2013-08-17 20:54:00,71.8,71.8,29.85,North,7,0.0,0.0,100,0.00,,---,0.12,VWS V14.00,2013-08-18 01:54:00,
2013-08-17 20:59:00,71.8,71.8,29.85,North,7,0.0,0.0,100,0.00,,---,0.12,VWS V14.00,2013-08-18 01:59:00,
2013-08-17 21:04:00,71.8,71.8,29.85,North,7,0.0,0.0,100,0.00,,---,0.12,VWS V14.00,2013-08-18 02:04:00,
2013-08-17 21:09:00,71.8,71.8,29.85,North,7,0.0,0.0,100,0.00,,---,0.12,VWS V14.00,2013-08-18 02:09:00,
2013-08-17 21:14:00,71.8,71.8,29.85,North,7,0.0,0.0,100,0.00,,---,0.12,VWS V14.00,2013-08-18 02:14:00,
2013-08-17 21:19:00,71.8,71.8,29.85,North,7,0.0,0.0,100,0.00,,---,0.12,VWS V14.00,2013-08-18 02:19:00,
2013-08-17 21:24:00,71.8,71.8,29.85,North,7,0.0,0.0,100,0.00,,---,0.12,VWS V14.00,2013-08-18 02:24:00,
2013-08-17 21:29:00,71.6,71.6,29.85,North,7,0.0,0.0,100,0.00,,---,0.12,VWS V14.00,2013-08-18 02:29:00,
2013-08-17 21:34:00,71.6,71.6,29.85,North,7,0.0,0.0,100,0.00,,---,0.12,VWS V14.00,2013-08-18 02:34:00,
2013-08-17 21:39:00,71.6,71.6,29.85,North,7,0.0,0.0,100,0.00,,---,0.12,VWS V14.00,2013-08-18 02:39:00,
2013-08-17 21:44:00,71.4,71.4,29.85,North,7,0.0,0.0,100,0.00,,---,0.12,VWS V14.00,2013-08-18 02:44:00,
2013-08-17 21:49:00,71.4,71.4,29.85,North,7,0.0,0.0,100,0.00,,---,0.12,VWS V14.00,2013-08-18 02:49:00,
2013-08-17 21:54:00,71.4,71.4,29.85,North,7,0.0,0.0,100,0.00,,---,0.12,VWS V14.00,2013-08-18 02:54:00,
2013-08-17 21:59:00,71.2,71.2,29.85,North,7,0.0,0.0,100,0.00,,---,0.12,VWS V14.00,2013-08-18 02:59:00,
2013-08-17 22:04:00,71.2,71.2,29.85,North,7,0.0,0.0,100,0.00,,---,0.12,VWS V14.00,2013-08-18 03:04:00,
2013-08-17 22:10:00,71.1,71.1,29.85,North,7,0.0,0.0,100,0.00,,---,0.12,VWS V14.00,2013-08-18 03:10:00,
2013-08-17 22:15:00,71.1,71.1,29.85,North,7,0.0,0.0,100,0.00,,---,0.12,VWS V14.00,2013-08-18 03:15:00,
2013-08-17 22:20:00,71.1,71.1,29.85,North,7,0.0,0.0,100,0.00,,---,0.12,VWS V14.00,2013-08-18 03:20:00,
2013-08-17 22:25:00,71.1,71.1,29.85,North,7,0.0,0.0,100,0.00,,---,0.12,VWS V14.00,2013-08-18 03:25:00,
2013-08-17 22:30:00,70.9,70.9,29.85,North,7,0.0,0.0,100,0.00,,---,0.12,VWS V14.00,2013-08-18 03:30:00,
2013-08-17 22:35:00,70.9,70.9,29.85,North,7,0.0,0.0,100,0.00,,---,0.12,VWS V14.00,2013-08-18 03:35:00,
2013-08-17 22:40:00,70.9,70.9,29.85,North,7,0.0,0.0,100,0.00,,---,0.12,VWS V14.00,2013-08-18 03:40:00,
2013-08-17 22:45:00,70.9,70.9,29.85,North,7,0.0,0.0,100,0.00,,---,0.12,VWS V14.00,2013-08-18 03:45:00,
2013-08-17 22:50:00,70.9,70.9,29.85,North,7,0.0,0.0,100,0.00,,---,0.12,VWS V14.00,2013-08-18 03:50:00,
2013-08-17 22:55:00,70.9,70.9,29.85,North,7,0.0,0.0,100,0.00,,---,0.12,VWS V14.00,2013-08-18 03:55:00,
2013-08-17 23:00:00,70.9,70.9,29.85,North,7,0.0,0.0,100,0.00,,---,0.12,VWS V14.00,2013-08-18 04:00:00,
2013-08-17 23:01:00,70.9,70.9,29.85,North,7,0.0,0.0,100,0.00,,---,0.12,VWS V14.00,2013-08-18 04:01:00,
2013-08-17 23:02:00,70.9,70.9,29.85,North,7,0.0,0.0,100,0.00,,---,0.12,VWS V14.00,2013-08-18 04:02:00,
2013-08-17 23:03:00,70.9,70.9,29.85,North,7,0.0,0.0,100,0.00,,---,0.12,VWS V14.00,2013-08-18 04:03:00,
2013-08-17 23:05:00,70.9,70.9,29.85,North,7,0.0,0.0,100,0.00,,---,0.12,VWS V14.00,2013-08-18 04:05:00,
2013-08-17 23:07:00,70.9,70.9,29.85,North,7,0.0,0.0,100,0.00,,---,0.12,VWS V14.00,2013-08-18 04:07:00,
2013-08-17 23:12:00,70.7,70.7,29.85,North,7,0.0,0.0,100,0.00,,---,0.12,VWS V14.00,2013-08-18 04:12:00,
2013-08-17 23:17:00,70.7,70.7,29.85,North,7,0.0,0.0,100,0.00,,---,0.12,VWS V14.00,2013-08-18 04:17:00,
2013-08-17 23:22:00,70.5,70.5,29.85,North,7,0.0,0.0,100,0.00,,---,0.12,VWS V14.00,2013-08-18 04:22:00,
2013-08-17 23:27:00,70.5,70.5,29.85,North,7,0.0,0.0,100,0.00,,---,0.12,VWS V14.00,2013-08-18 04:27:00,
2013-08-17 23:32:00,70.5,70.5,29.85,North,7,0.0,0.0,100,0.00,,---,0.12,VWS V14.00,2013-08-18 04:32:00,
2013-08-17 23:37:00,70.5,70.5,29.85,North,7,0.0,0.0,100,0.00,,---,0.12,VWS V14.00,2013-08-18 04:37:00,
2013-08-17 23:42:00,70.5,70.5,29.85,North,7,0.0,0.0,100,0.00,,---,0.12,VWS V14.00,2013-08-18 04:42:00,
2013-08-17 23:47:00,70.3,70.3,29.85,North,7,0.0,0.0,100,0.00,,---,0.12,VWS V14.00,2013-08-18 04:47:00,
2013-08-17 23:52:00,70.3,70.3,29.85,North,7,0.0,0.0,100,0.00,,---,0.12,VWS V14.00,2013-08-18 04:52:00,
2013-08-17 23:57:00,70.3,70.3,29.85,North,7,0.0,0.0,100,0.00,,---,0.12,VWS V14.00,2013-08-18 04:57:00,